period_start,C,m1,H,J0,J1,J2,J3,J4,J5,JA,JB,JC,JD,JJ,JK,JN,#
2014-08-19 00:03:23,0.37,0.32,0.00,25.50,29.95,32.24,9.41,40.32,1000.52,2028.07,3300.06,3224.98,3478.80,499.91,484.52,8.01,0000 0000 0000 0000 000000
2014-08-19 00:08:24,0.36,0.33,0.00,25.50,29.95,32.24,9.42,40.17,1000.51,2028.06,3292.94,3220.74,3473.32,500.22,484.97,8.06,0000 0000 0000 0000 000000
2014-08-19 00:13:25,0.33,0.35,0.00,25.50,29.95,32.24,9.34,39.92,1000.50,2028.06,3286.30,3216.71,3468.12,499.76,484.42,8.10,0000 0000 0000 0000 000000
2014-08-19 00:18:27,0.34,0.36,0.00,25.48,29.95,32.25,9.41,40.41,1000.51,2028.09,3279.73,3212.80,3463.09,499.86,484.66,8.14,0000 0000 0000 0000 000000
2014-08-19 00:23:28,0.33,0.38,0.00,25.48,29.96,32.25,9.44,40.39,1000.50,2028.16,3273.38,3208.93,3458.11,500.25,485.04,8.18,0000 0000 0000 0000 000000
2014-08-19 00:28:29,0.33,0.39,0.00,25.50,29.97,32.25,9.27,40.63,1000.49,2028.12,3266.88,3204.99,3453.13,499.69,484.62,8.22,0000 0000 0000 0000 000000
2014-08-19 00:33:30,0.33,0.40,0.00,25.50,29.97,32.24,9.34,40.42,1000.37,2028.12,3260.59,3201.06,3448.12,499.79,484.75,8.26,0000 0000 0000 0000 000000
2014-08-19 00:38:31,0.33,0.42,0.00,25.51,29.97,32.26,9.37,40.52,1000.12,2028.06,3254.15,3197.22,3443.07,500.19,484.82,8.31,0000 0000 0000 0000 000000
2014-08-19 00:43:32,0.33,0.43,0.00,25.53,29.97,32.24,9.32,40.50,1000.03,2028.04,3247.66,3193.30,3438.01,499.93,484.41,8.35,0000 0000 0000 0000 000000
2014-08-19 00:48:33,0.31,0.45,0.00,25.56,29.97,32.26,9.41,40.46,1000.02,2028.02,3241.63,3189.61,3433.35,500.00,484.41,8.39,0000 0000 0000 0000 000000
2014-08-19 00:53:35,0.29,0.46,0.00,25.53,29.97,32.26,9.35,40.38,1000.02,2028.01,3236.03,3186.10,3428.93,500.11,484.59,8.43,0000 0000 0000 0000 000000
2014-08-19 00:58:36,0.25,0.47,0.00,25.53,29.99,32.26,9.33,40.58,1000.01,2028.00,3231.11,3183.06,3425.09,500.16,484.54,8.47,0000 0000 0000 0000 000000
2014-08-19 01:03:37,0.25,0.48,0.00,25.54,30.00,32.27,9.41,40.86,1000.01,2028.01,3226.45,3180.18,3421.46,500.54,484.95,8.52,0000 0000 0000 0000 000000
2014-08-19 01:08:39,0.22,0.49,0.00,25.54,30.00,32.26,9.34,41.16,1000.01,2028.01,3222.05,3177.45,3418.02,499.58,484.08,8.56,0000 0000 0000 0000 000000
2014-08-19 01:13:40,0.22,0.50,0.00,25.55,30.00,32.27,9.38,41.00,999.99,2028.01,3217.85,3174.81,3414.71,500.34,484.73,8.60,0000 0000 0000 0000 000000
2014-08-19 01:18:40,0.21,0.51,0.00,25.57,30.00,32.28,9.29,40.85,999.94,2028.00,3213.79,3172.27,3411.50,499.81,484.32,8.64,0000 0000 0000 0000 000000
2014-08-19 01:23:42,0.19,0.52,0.00,25.57,30.00,32.28,9.31,40.89,999.80,2028.00,3210.21,3169.97,3408.65,499.56,484.17,8.68,0000 0000 0000 0000 000000
2014-08-19 01:28:43,0.16,0.52,0.00,25.59,30.01,32.29,9.37,41.05,999.56,2028.00,3207.05,3167.98,3406.20,499.93,484.06,8.72,0000 0000 0000 0000 000000
2014-08-19 01:33:44,0.15,0.53,0.00,25.59,30.02,32.29,9.34,41.15,999.54,2028.00,3204.08,3166.04,3403.89,500.18,484.32,8.77,0000 0000 0000 0000 000000
2014-08-19 01:38:45,0.15,0.54,0.00,25.60,30.02,32.28,9.35,41.21,999.53,2028.00,3201.12,3164.20,3401.61,500.00,484.18,8.81,0000 0000 0000 0000 000000
2014-08-19 01:43:46,0.19,0.55,0.00,25.62,30.02,32.29,9.43,41.23,999.53,2028.00,3197.80,3162.05,3398.90,500.11,484.07,8.85,0000 0000 0000 0000 000000
2014-08-19 01:48:48,0.20,0.55,0.00,25.64,30.02,32.29,9.41,41.20,999.53,2028.00,3193.96,3159.64,3395.90,499.90,483.93,8.89,0000 0000 0000 0000 000000
2014-08-19 01:53:49,0.20,0.56,0.00,25.65,30.03,32.31,9.36,41.20,999.53,2028.00,3190.10,3157.24,3392.87,500.27,484.24,8.93,0000 0000 0000 0000 000000
2014-08-19 01:58:50,0.20,0.57,0.00,25.64,30.05,32.31,9.35,41.46,999.53,2028.00,3186.29,3154.85,3390.10,499.57,483.52,8.98,0000 0000 0000 0000 000000
2014-08-19 02:03:52,0.19,0.58,0.00,25.66,30.05,32.32,9.36,41.16,999.53,2028.00,3182.52,3152.50,3387.24,500.40,484.07,9.02,0000 0000 0000 0000 000000
2014-08-19 02:08:53,0.20,0.59,0.00,25.67,30.05,32.32,9.42,41.10,999.53,2028.00,3178.74,3150.13,3384.31,500.36,484.31,9.06,0000 0000 0000 0000 000000
2014-08-19 02:13:55,0.20,0.60,0.00,25.68,30.05,32.33,9.31,40.92,999.52,2028.00,3174.97,3147.77,3381.37,499.55,483.55,9.10,0000 0000 0000 0000 000000
2014-08-19 02:18:56,0.20,0.61,0.00,25.69,30.06,32.34,9.35,41.12,999.50,2028.00,3171.25,3145.38,3378.40,500.24,484.16,9.14,0000 0000 0000 0000 000000
2014-08-19 02:23:57,0.21,0.61,0.00,25.68,30.07,32.34,9.32,41.06,999.38,2028.00,3167.47,3142.96,3375.44,499.64,483.56,9.18,0000 0000 0000 0000 000000
2014-08-19 02:28:59,0.21,0.63,0.00,25.68,30.07,32.35,9.36,41.37,999.14,2028.00,3163.57,3140.51,3372.41,500.00,483.78,9.23,0000 0000 0000 0000 000000
2014-08-19 02:34:00,0.24,0.63,0.00,25.70,30.08,32.36,9.41,41.35,999.24,2028.00,3159.32,3137.87,3369.08,500.67,484.42,9.27,0000 0000 0000 0000 000000
2014-08-19 02:39:01,0.23,0.64,0.00,25.70,30.10,32.36,9.28,41.23,999.18,2027.98,3154.88,3135.12,3365.62,499.87,483.46,9.31,0000 0000 0000 0000 000000
2014-08-19 02:44:02,0.24,0.65,0.00,25.72,30.10,32.36,9.39,41.21,999.09,2027.98,3150.44,3132.42,3362.10,499.99,483.69,9.35,0000 0000 0000 0000 000000
2014-08-19 02:49:04,0.24,0.66,0.00,25.73,30.10,32.38,9.36,41.07,999.06,2027.98,3146.04,3129.70,3358.69,499.61,483.28,9.39,0000 0000 0000 0000 000000
2014-08-19 02:54:05,0.27,0.67,0.00,25.75,30.12,32.38,9.34,40.93,999.04,2027.98,3141.13,3126.67,3354.92,500.25,484.02,9.44,0000 0000 0000 0000 000000
2014-08-19 02:59:06,0.30,0.69,0.00,25.76,30.12,32.39,9.35,41.13,999.05,2027.94,3135.72,3123.25,3350.65,500.06,483.75,9.48,0000 0000 0000 0000 000000
2014-08-19 03:04:07,0.33,0.70,0.00,25.74,30.12,32.41,9.33,41.16,999.04,2027.96,3129.78,3119.52,3345.96,499.85,483.57,9.52,0000 0000 0000 0000 000000
2014-08-19 03:09:08,0.38,0.72,0.00,25.69,30.14,32.43,9.32,41.17,999.04,2027.97,3122.98,3115.36,3340.70,499.87,483.64,9.56,0000 0000 0000 0000 000000
2014-08-19 03:14:09,0.39,0.73,0.00,25.63,30.15,32.43,9.27,40.94,999.04,2027.95,3115.83,3110.92,3335.11,499.65,483.53,9.60,0000 0000 0000 0000 000000
2014-08-19 03:19:10,0.44,0.75,0.00,25.61,30.15,32.44,9.36,41.39,999.04,2027.94,3108.00,3106.05,3329.06,500.10,483.92,9.64,0000 0000 0000 0000 000000
2014-08-19 03:24:12,0.46,0.77,0.00,25.58,30.15,32.45,9.38,41.10,999.06,2027.93,3099.63,3100.86,3322.66,500.05,483.85,9.69,0000 0000 0000 0000 000000
2014-08-19 03:29:13,0.49,0.79,0.00,25.55,30.15,32.44,9.33,41.16,999.05,2027.86,3091.04,3095.43,3315.86,499.42,483.42,9.73,0000 0000 0000 0000 000000
2014-08-19 03:34:14,0.47,0.81,0.00,25.53,30.15,32.44,9.41,41.18,999.06,2027.89,3082.56,3090.12,3309.22,500.11,484.16,9.77,0000 0000 0000 0000 000000
2014-08-19 03:39:15,0.50,0.83,0.00,25.52,30.15,32.43,9.39,41.18,999.06,2027.90,3073.94,3084.65,3302.40,500.25,484.21,9.81,0000 0000 0000 0000 000000
2014-08-19 03:44:17,0.50,0.85,0.00,25.54,30.15,32.43,9.36,41.33,999.06,2027.86,3065.06,3078.97,3295.31,499.88,483.91,9.85,0000 0000 0000 0000 000000
2014-08-19 03:49:18,0.52,0.87,0.00,25.54,30.15,32.42,9.29,40.91,999.06,2027.92,3056.05,3073.31,3288.14,500.04,484.01,9.90,0000 0000 0000 0000 000000
2014-08-19 03:54:19,0.55,0.90,0.00,25.52,30.14,32.41,9.29,40.88,999.05,2027.84,3046.51,3067.29,3280.54,499.94,483.94,9.94,0000 0000 0000 0000 000000
2014-08-19 03:59:20,0.57,0.92,0.63,25.54,30.13,32.41,9.25,41.42,999.05,2027.91,3036.68,3061.06,3272.76,499.80,483.83,9.98,0000 0000 0000 0000 000000
2014-08-19 04:04:21,0.57,0.94,1.00,25.55,30.12,32.39,9.44,41.04,999.04,2027.91,3026.82,3054.78,3264.99,500.45,484.23,10.02,0000 0000 0000 0000 000000
2014-08-19 04:09:22,0.57,0.97,1.00,25.56,30.12,32.39,9.25,40.70,999.05,2027.93,3017.02,3048.50,3257.36,499.19,483.28,10.06,0000 0000 0000 0000 000000
2014-08-19 04:14:23,0.57,0.99,1.00,25.56,30.12,32.39,9.39,40.95,999.05,2027.90,3007.24,3042.14,3249.48,499.80,483.73,10.10,0000 0000 0000 0000 000000
2014-08-19 04:19:24,0.58,1.02,1.00,25.58,30.12,32.38,9.34,41.18,999.05,2027.88,2997.42,3035.74,3241.63,499.88,483.78,10.15,0000 0000 0000 0000 000000
2014-08-19 04:24:25,0.55,1.04,1.00,25.60,30.12,32.36,9.36,41.33,999.04,2027.81,2987.77,3029.52,3233.98,499.81,483.83,10.19,0000 0000 0000 0000 000000
2014-08-19 04:29:27,0.54,1.06,1.00,25.63,30.12,32.37,9.32,40.87,999.04,2027.84,2978.50,3023.62,3226.63,500.02,484.09,10.23,0000 0000 0000 0000 000000
2014-08-19 04:34:28,0.53,1.09,1.00,25.67,30.12,32.36,9.26,40.72,999.04,2027.76,2969.22,3017.67,3219.32,499.34,483.10,10.27,0000 0000 0000 0000 000000
2014-08-19 04:39:29,0.56,1.11,1.00,25.74,30.12,32.36,9.34,40.84,999.04,2027.68,2960.07,3011.73,3212.05,500.04,483.69,10.31,0000 0000 0000 0000 000000
2014-08-19 04:44:30,0.52,1.13,1.00,25.78,30.12,32.36,9.32,40.52,999.04,2027.64,2950.90,3005.94,3204.76,500.23,483.90,10.36,0000 0000 0000 0000 000000
2014-08-19 04:49:32,0.52,1.15,1.00,25.82,30.12,32.35,9.27,40.92,999.03,2027.34,2941.79,2999.95,3197.52,500.04,483.67,10.40,0000 0000 0000 0000 000000
2014-08-19 04:54:32,0.55,1.18,1.00,25.88,30.14,32.36,9.32,40.55,999.04,2027.34,2932.67,2993.95,3190.28,499.88,483.19,10.44,0000 0000 0000 0000 000000
2014-08-19 04:59:33,0.52,1.20,1.00,25.92,30.15,32.36,9.33,40.42,999.03,2027.13,2923.77,2988.06,3183.15,499.88,483.28,10.48,0000 0000 0000 0000 000000
2014-08-19 05:04:35,0.52,1.22,1.00,25.96,30.16,32.38,9.29,40.44,999.04,2027.03,2915.18,2982.39,3176.27,499.77,483.03,10.52,0000 0000 0000 0000 000000
2014-08-19 05:09:36,0.52,1.24,1.00,25.98,30.17,32.39,9.43,40.82,999.04,2027.02,2906.72,2976.71,3169.50,500.61,483.92,10.56,0000 0000 0000 0000 000000
2014-08-19 05:14:37,0.52,1.26,1.00,26.03,30.20,32.41,9.38,40.61,999.04,2027.01,2898.28,2971.02,3162.66,500.48,483.63,10.61,0000 0000 0000 0000 000000
2014-08-19 05:19:39,0.52,1.29,1.00,26.06,30.21,32.43,9.35,40.84,999.04,2027.00,2890.02,2965.41,3155.90,500.42,483.53,10.65,0000 0000 0000 0000 000000
2014-08-19 05:24:40,0.52,1.31,1.00,26.11,30.23,32.45,9.28,40.81,999.05,2027.00,2881.75,2959.82,3149.24,499.61,482.77,10.69,0000 0000 0000 0000 000000
2014-08-19 05:29:41,0.51,1.33,1.00,26.15,30.25,32.48,9.38,40.89,999.05,2026.99,2873.72,2954.31,3142.61,500.04,482.99,10.73,0000 0000 0000 0000 000000
2014-08-19 05:34:42,0.51,1.35,1.00,26.17,30.27,32.50,9.24,40.53,999.05,2026.98,2865.65,2948.89,3136.18,499.52,482.39,10.77,0000 0000 0000 0000 000000
2014-08-19 05:39:44,0.48,1.37,1.00,26.17,30.30,32.53,9.32,40.95,999.06,2026.93,2857.78,2943.53,3129.92,499.34,482.53,10.82,0000 0000 0000 0000 000000
2014-08-19 05:44:45,0.48,1.39,1.00,26.18,30.31,32.56,9.35,40.81,999.05,2026.86,2850.14,2938.41,3123.74,500.22,483.10,10.86,0000 0000 0000 0000 000000
2014-08-19 05:49:46,0.44,1.41,1.00,26.24,30.34,32.58,9.32,40.74,999.04,2026.56,2842.58,2933.19,3117.60,500.33,483.11,10.90,0000 0000 0000 0000 000000
2014-08-19 05:54:47,0.45,1.43,1.00,26.25,30.36,32.60,9.33,40.76,999.04,2026.14,2835.06,2927.99,3111.43,499.92,482.60,10.94,0000 0000 0000 0000 000000
2014-08-19 05:59:48,0.47,1.45,0.27,26.28,30.38,32.63,9.41,40.63,999.04,2026.03,2827.73,2922.91,3105.42,500.52,483.30,10.98,0000 0000 0000 0000 000000
2014-08-19 06:04:49,0.47,1.47,0.00,26.34,30.41,32.65,9.31,40.70,999.04,2026.00,2820.49,2917.91,3099.46,500.16,482.85,11.02,0000 0000 0000 0000 000000
2014-08-19 06:09:50,0.47,1.49,0.00,26.38,30.43,32.68,9.24,40.68,999.04,2026.00,2813.35,2912.86,3093.55,499.49,482.22,11.07,0000 0000 0000 0000 000000
2014-08-19 06:14:51,0.48,1.51,0.00,26.41,30.46,32.70,9.30,40.82,999.04,2026.00,2806.25,2907.78,3087.60,499.68,482.16,11.11,0000 0000 0000 0000 000000
2014-08-19 06:19:52,0.47,1.53,0.00,26.45,30.49,32.73,9.29,40.17,999.04,2025.99,2799.15,2902.79,3081.79,500.31,482.85,11.15,0000 0000 0000 0000 000000
2014-08-19 06:24:54,0.46,1.55,0.00,26.46,30.51,32.75,9.34,40.05,999.04,2025.95,2792.25,2897.87,3076.03,500.27,482.68,11.19,0000 0000 0000 0000 000000
2014-08-19 06:29:55,0.42,1.57,0.00,26.50,30.54,32.79,9.32,40.23,999.04,2025.72,2785.38,2892.96,3070.38,500.40,482.69,11.23,0000 0000 0000 0000 000000
2014-08-19 06:34:56,0.40,1.58,0.00,26.54,30.57,32.80,9.38,40.74,999.04,2025.27,2778.64,2888.25,3064.91,500.52,482.87,11.28,0000 0000 0000 0000 000000
2014-08-19 06:39:58,0.41,1.60,0.00,26.56,30.60,32.83,9.24,40.69,999.04,2025.05,2772.18,2883.74,3059.67,499.69,481.96,11.32,0000 0000 0000 0000 000000
2014-08-19 06:44:59,0.40,1.62,0.00,26.62,30.63,32.87,9.27,40.02,999.04,2025.00,2766.08,2879.56,3054.72,500.02,482.28,11.36,0000 0000 0000 0000 000000
2014-08-19 06:50:00,0.40,1.64,0.00,26.65,30.66,32.89,9.29,40.42,999.05,2025.00,2760.20,2875.50,3049.88,499.82,482.12,11.40,0000 0000 0000 0000 000000
2014-08-19 06:55:01,0.42,1.65,0.00,26.66,30.69,32.93,9.26,41.47,999.06,2024.99,2753.98,2871.18,3044.84,499.63,481.80,11.44,0000 0000 0000 0000 000000
2014-08-19 07:00:03,0.39,1.67,0.00,26.69,30.72,32.96,9.25,40.81,999.06,2024.93,2748.14,2866.87,3039.85,499.77,481.84,11.49,0000 0000 0000 0000 000000
2014-08-19 07:05:04,0.39,1.69,0.00,26.74,30.76,32.99,9.19,40.42,999.06,2024.87,2742.26,2862.86,3035.01,499.40,481.54,11.53,0000 0000 0000 0000 000000
2014-08-19 07:10:06,0.34,1.70,0.00,26.78,30.79,33.02,9.26,40.49,999.06,2024.31,2736.22,2858.67,3030.18,499.21,481.18,11.57,0000 0000 0000 0000 000000
2014-08-19 07:15:07,0.37,1.72,0.00,26.82,30.82,33.05,9.30,40.29,999.07,2024.06,2730.28,2854.64,3025.41,499.96,481.77,11.61,0000 0000 0000 0000 000000
2014-08-19 07:20:08,0.40,1.73,0.00,26.84,30.85,33.08,9.27,40.25,999.06,2024.00,2724.38,2850.57,3020.67,499.73,481.66,11.65,0000 0000 0000 0000 000000
2014-08-19 07:25:09,0.39,1.75,0.00,26.88,30.88,33.11,9.34,40.71,999.05,2024.00,2718.60,2846.62,3016.04,500.00,481.81,11.69,0000 0000 0000 0000 000000
2014-08-19 07:30:10,0.37,1.77,0.00,26.91,30.91,33.14,9.21,40.14,999.15,2023.99,2713.02,2842.80,3011.60,499.82,481.47,11.74,0000 0000 0000 0000 000000
2014-08-19 07:35:11,0.36,1.78,0.00,26.95,30.94,33.17,9.32,40.67,999.22,2023.89,2707.44,2838.96,3007.29,500.19,482.03,11.78,0000 0000 0000 0000 000000
2014-08-19 07:40:12,0.32,1.80,0.00,26.97,30.97,33.20,9.28,40.08,999.35,2023.58,2701.95,2835.22,3002.96,499.85,481.70,11.82,0000 0000 0000 0000 000000
2014-08-19 07:45:14,0.35,1.81,0.00,27.00,31.01,33.22,9.34,40.41,999.44,2023.09,2696.25,2831.29,2998.39,500.19,482.03,11.86,0000 0000 0000 0000 000000
2014-08-19 07:50:15,0.38,1.83,0.00,27.03,31.03,33.26,9.21,40.55,999.47,2023.00,2690.63,2827.40,2993.83,499.36,481.15,11.90,0000 0000 0000 0000 000000
2014-08-19 07:55:16,0.39,1.84,0.00,27.06,31.06,33.29,9.29,41.08,999.46,2023.00,2685.01,2823.50,2989.32,500.25,481.96,11.95,0000 0000 0000 0000 000000
2014-08-19 08:00:18,0.39,1.86,0.00,27.11,31.10,33.32,9.35,40.76,999.51,2022.99,2679.46,2819.62,2984.80,500.01,481.69,11.99,0000 0000 0000 0000 000000
2014-08-19 08:05:19,0.35,1.87,0.00,27.13,31.13,33.35,9.29,40.56,999.52,2022.95,2674.19,2816.01,2980.48,500.41,481.92,12.03,0000 0000 0000 0000 000000
2014-08-19 08:10:20,0.30,1.89,0.00,27.17,31.16,33.39,9.26,40.37,999.50,2022.54,2668.97,2812.48,2976.24,500.17,481.64,12.07,0000 0000 0000 0000 000000
2014-08-19 08:15:22,0.28,1.90,0.00,27.22,31.19,33.42,9.16,40.36,999.50,2022.12,2664.11,2809.07,2972.30,499.03,481.03,12.11,0000 0000 0000 0000 000000
2014-08-19 08:20:22,0.33,1.91,0.00,27.27,31.22,33.45,9.27,41.93,999.49,2022.01,2659.37,2805.78,2968.50,499.90,481.29,12.15,0000 0000 0000 0000 000000
2014-08-19 08:25:24,0.32,1.93,0.00,27.33,31.26,33.49,9.26,42.02,999.44,2022.00,2654.75,2802.48,2964.71,499.78,481.09,12.20,0000 0000 0000 0000 000000
2014-08-19 08:30:25,0.30,1.94,0.00,27.37,31.29,33.51,9.24,41.91,999.45,2021.99,2650.31,2799.41,2961.07,499.95,481.16,12.24,0000 0000 0000 0000 000000
2014-08-19 08:35:26,0.32,1.95,0.00,27.40,31.32,33.55,9.31,41.89,999.47,2021.97,2645.83,2796.27,2957.41,500.17,481.40,12.28,0000 0000 0000 0000 000000
2014-08-19 08:40:27,0.28,1.97,0.00,27.45,31.36,33.58,9.30,41.99,999.53,2021.73,2641.34,2793.10,2953.79,499.91,481.03,12.32,0000 0000 0000 0000 000000
2014-08-19 08:45:28,0.24,1.98,0.00,27.51,31.39,33.61,9.33,41.78,999.53,2021.19,2636.97,2790.01,2950.19,500.16,481.23,12.36,0000 0000 0000 0000 000000
2014-08-19 08:50:30,0.29,1.99,0.00,27.55,31.42,33.65,9.24,41.87,999.52,2021.01,2632.81,2786.99,2946.70,499.94,480.94,12.41,0000 0000 0000 0000 000000
2014-08-19 08:55:30,0.30,2.00,0.00,27.59,31.46,33.68,9.36,41.95,999.51,2021.00,2628.65,2784.05,2943.40,500.40,481.18,12.45,0000 0000 0000 0000 000000
2014-08-19 09:00:31,0.29,2.01,0.00,27.62,31.50,33.72,9.21,41.81,999.50,2021.00,2624.62,2781.09,2940.02,499.89,480.66,12.49,0000 0000 0000 0000 000000
2014-08-19 09:05:32,0.29,2.03,0.00,27.64,31.54,33.76,9.32,41.43,999.52,2020.96,2620.74,2778.17,2936.71,499.82,480.69,12.53,0000 0000 0000 0000 000000
2014-08-19 09:10:33,0.23,2.04,0.00,27.69,31.58,33.80,9.32,41.44,999.53,2020.68,2616.77,2775.37,2933.43,500.06,480.70,12.57,0000 0000 0000 0000 000000
2014-08-19 09:15:35,0.23,2.05,0.00,27.71,31.61,33.83,9.25,40.99,999.53,2020.19,2612.87,2772.57,2930.20,499.74,480.54,12.61,0000 0000 0000 0000 000000
2014-08-19 09:20:35,0.26,2.06,0.00,27.74,31.65,33.87,9.27,41.50,999.53,2020.01,2609.01,2769.80,2927.05,500.04,480.72,12.66,0000 0000 0000 0000 000000
2014-08-19 09:25:37,0.28,2.07,0.00,27.77,31.69,33.90,9.34,41.60,999.50,2020.00,2605.20,2767.11,2923.94,500.30,480.88,12.70,0000 0000 0000 0000 000000
2014-08-19 09:30:38,0.27,2.08,0.00,27.81,31.72,33.94,9.29,41.62,999.52,2019.98,2601.44,2764.48,2920.84,500.07,480.56,12.74,0000 0000 0000 0000 000000
2014-08-19 09:35:39,0.25,2.09,0.00,27.85,31.76,33.98,9.30,41.28,999.53,2019.89,2597.69,2761.84,2917.84,500.25,480.71,12.78,0000 0000 0000 0000 000000
2014-08-19 09:40:40,0.19,2.10,0.00,27.90,31.79,34.01,9.27,41.34,999.53,2019.39,2594.06,2759.28,2914.78,500.07,480.48,12.82,0000 0000 0000 0000 000000
2014-08-19 09:45:41,0.25,2.11,0.00,27.96,31.83,34.04,9.24,41.54,999.53,2019.04,2590.40,2756.64,2911.81,500.46,480.56,12.87,0000 0000 0000 0000 000000
2014-08-19 09:50:42,0.26,2.12,0.00,28.01,31.86,34.07,9.29,41.61,999.53,2019.00,2586.78,2754.08,2908.82,500.21,480.42,12.91,0000 0000 0000 0000 000000
2014-08-19 09:55:44,0.25,2.13,0.00,28.05,31.90,34.11,9.27,41.41,999.53,2018.99,2583.22,2751.66,2905.96,500.17,480.23,12.95,0000 0000 0000 0000 000000
2014-08-19 10:00:45,0.24,2.14,0.00,28.09,31.93,34.14,9.19,41.85,999.53,2018.95,2579.82,2749.30,2903.10,499.77,479.75,12.99,0000 0000 0000 0000 000000
2014-08-19 10:05:46,0.20,2.15,0.00,28.13,31.97,34.18,9.25,41.27,999.53,2018.62,2576.38,2746.84,2900.30,500.09,480.00,13.03,0000 0000 0000 0000 000000
2014-08-19 10:10:47,0.20,2.16,0.00,28.16,32.01,34.22,9.25,41.02,999.53,2018.18,2572.88,2744.39,2897.46,499.95,479.93,13.07,0000 0000 0000 0000 000000
2014-08-19 10:15:49,0.26,2.17,0.00,28.20,32.05,34.25,9.27,41.07,999.54,2018.03,2569.36,2741.91,2894.60,500.20,480.24,13.12,0000 0000 0000 0000 000000
2014-08-19 10:20:50,0.28,2.18,0.00,28.25,32.09,34.29,9.31,41.04,999.53,2018.00,2565.62,2739.22,2891.48,500.31,480.18,13.16,0000 0000 0000 0000 000000
2014-08-19 10:25:51,0.29,2.19,0.00,28.31,32.12,34.33,9.19,40.86,999.53,2017.99,2561.72,2736.38,2888.25,499.33,479.29,13.20,0000 0000 0000 0000 000000
2014-08-19 10:30:52,0.27,2.21,0.00,28.35,32.16,34.37,9.33,41.11,999.53,2017.95,2558.13,2733.69,2885.11,500.33,480.00,13.24,0000 0000 0000 0000 000000
2014-08-19 10:35:54,0.16,2.21,0.00,28.40,32.21,34.41,9.21,41.45,999.53,2017.36,2554.84,2731.14,2882.15,499.99,479.58,13.28,0000 0000 0000 0000 000000
2014-08-19 10:40:55,0.23,2.22,0.00,28.46,32.25,34.46,9.13,40.98,999.53,2017.01,2551.36,2728.72,2879.47,499.69,479.19,13.33,0000 0000 0000 0000 000000
2014-08-19 10:45:56,0.25,2.23,0.00,28.51,32.29,34.50,9.17,40.90,999.53,2017.00,2547.98,2726.28,2876.76,499.35,478.76,13.37,0000 0000 0000 0000 000000
2014-08-19 10:50:58,0.25,2.25,0.00,28.54,32.33,34.54,9.22,40.77,999.55,2016.98,2544.52,2723.92,2874.04,500.10,479.50,13.41,0000 0000 0000 0000 000000
2014-08-19 10:55:59,0.26,2.25,0.00,28.59,32.36,34.58,9.17,40.84,999.58,2016.88,2540.85,2721.37,2871.07,499.46,478.78,13.45,0000 0000 0000 0000 000000
2014-08-19 11:01:00,0.20,2.27,0.00,28.66,32.41,34.62,9.23,40.90,999.62,2016.42,2537.07,2718.68,2868.05,499.99,479.29,13.49,0000 0000 0000 0000 000000
2014-08-19 11:06:01,0.26,2.28,0.00,28.74,32.44,34.65,9.25,41.39,999.59,2016.03,2533.31,2716.05,2864.98,500.01,479.08,13.53,0000 0000 0000 0000 000000
2014-08-19 11:11:02,0.28,2.29,0.00,28.82,32.48,34.69,9.22,40.94,999.61,2016.00,2529.46,2713.34,2861.86,500.04,479.00,13.58,0000 0000 0000 0000 000000
2014-08-19 11:16:04,0.29,2.30,0.00,28.88,32.51,34.73,9.11,40.83,999.59,2016.00,2525.59,2710.75,2858.81,499.40,478.40,13.62,0000 0000 0000 0000 000000
2014-08-19 11:21:05,0.28,2.31,0.00,28.91,32.55,34.76,9.22,41.02,999.56,2015.96,2521.62,2708.04,2855.67,500.04,478.63,13.66,0000 0000 0000 0000 000000
2014-08-19 11:26:07,0.27,2.32,0.00,28.92,32.59,34.80,9.25,41.09,999.62,2015.77,2517.62,2705.27,2852.46,500.26,479.04,13.70,0000 0000 0000 0000 000000
2014-08-19 11:31:08,0.24,2.33,0.00,28.92,32.62,34.84,9.23,41.02,999.72,2015.33,2513.61,2702.57,2849.26,500.37,479.22,13.74,0000 0000 0000 0000 000000
2014-08-19 11:36:09,0.29,2.35,0.00,28.90,32.65,34.87,9.13,41.13,999.85,2015.05,2509.47,2699.74,2845.95,499.59,478.64,13.79,0000 0000 0000 0000 000000
2014-08-19 11:41:10,0.28,2.36,0.00,28.87,32.68,34.90,9.16,41.39,1000.00,2015.00,2505.53,2696.97,2842.75,499.73,478.99,13.83,0000 0000 0000 0000 000000
2014-08-19 11:46:11,0.29,2.37,0.00,28.86,32.71,34.94,9.25,41.64,1000.00,2014.95,2501.58,2694.24,2839.60,500.12,478.97,13.87,0000 0000 0000 0000 000000
2014-08-19 11:51:12,0.28,2.38,0.00,28.81,32.74,34.97,9.19,41.25,999.96,2014.78,2497.59,2691.45,2836.37,499.85,479.04,13.91,0000 0000 0000 0000 000000
2014-08-19 11:56:13,0.24,2.39,0.00,28.79,32.77,34.99,9.25,41.14,999.96,2014.51,2493.79,2688.82,2833.24,500.23,479.29,13.95,0000 0000 0000 0000 000000
2014-08-19 12:01:15,0.27,2.40,0.00,28.78,32.80,35.01,9.17,41.06,999.91,2014.08,2489.68,2686.08,2829.96,499.90,479.09,14.00,0000 0000 0000 0000 000000
2014-08-19 12:06:16,0.30,2.42,0.00,28.77,32.82,35.05,9.34,41.82,999.80,2014.02,2485.67,2683.34,2826.75,500.03,479.14,14.04,0000 0000 0000 0000 000000
2014-08-19 12:11:17,0.31,2.43,0.00,28.75,32.85,35.06,9.22,40.84,999.94,2014.00,2481.59,2680.53,2823.55,500.04,479.27,14.08,0000 0000 0000 0000 000000
2014-08-19 12:16:19,0.31,2.44,0.00,28.78,32.87,35.09,9.20,41.23,1000.01,2014.00,2477.50,2677.72,2820.22,499.59,478.84,14.12,0000 0000 0000 0000 000000
2014-08-19 12:21:20,0.30,2.45,0.00,28.77,32.89,35.10,9.25,41.17,1000.01,2013.98,2473.47,2674.99,2817.04,499.91,479.02,14.16,0000 0000 0000 0000 000000
2014-08-19 12:26:22,0.31,2.47,0.00,28.76,32.91,35.13,9.23,41.33,1000.01,2013.95,2469.30,2672.20,2813.89,499.76,479.03,14.21,0000 0000 0000 0000 000000
2014-08-19 12:31:23,0.32,2.48,0.00,28.77,32.94,35.15,9.22,40.85,1000.01,2013.92,2465.01,2669.26,2810.50,499.74,479.04,14.25,0000 0000 0000 0000 000000
2014-08-19 12:36:24,0.29,2.50,0.00,28.77,32.96,35.17,9.24,41.09,1000.01,2013.71,2460.58,2666.28,2807.02,500.20,479.41,14.29,0000 0000 0000 0000 000000
2014-08-19 12:41:25,0.29,2.51,0.00,28.78,32.97,35.19,9.22,41.44,1000.01,2013.25,2456.09,2663.23,2803.48,499.91,479.11,14.33,0000 0000 0000 0000 000000
2014-08-19 12:46:26,0.34,2.52,0.00,28.80,32.99,35.20,9.27,42.26,1000.01,2013.05,2451.39,2660.04,2799.79,500.13,479.24,14.37,0000 0000 0000 0000 000000
2014-08-19 12:51:27,0.35,2.54,0.00,28.81,33.01,35.23,9.21,41.22,1000.01,2013.01,2446.75,2656.94,2796.17,499.67,478.86,14.41,0000 0000 0000 0000 000000
2014-08-19 12:56:29,0.33,2.55,0.00,28.84,33.02,35.25,9.21,41.25,1000.01,2013.00,2442.50,2653.98,2792.74,499.87,479.06,14.46,0000 0000 0000 0000 000000
2014-08-19 13:01:30,0.34,2.56,0.00,28.83,33.05,35.26,9.18,41.15,999.97,2013.00,2438.09,2651.04,2789.31,499.52,478.60,14.50,0000 0000 0000 0000 000000
2014-08-19 13:06:31,0.33,2.58,0.00,28.82,33.06,35.27,9.27,41.53,999.75,2012.99,2433.79,2648.08,2785.92,500.74,479.65,14.54,0000 0000 0000 0000 000000